• In Hungary
  • List of Countries
  • For 7 days
  • Water Temperature
  • Satellite Maps
  • Weather Map
  • News
  • Weather Widgets
  • user-avatar
    Login

    Hourly Weather Ublik

    Today, 23 October, Monday

    Time Temperature Precipitation Wind Pressure Humidity
    00:00 +4°C° 0.3 mm 4 mps 748 mmHg 88%
    01:00 +4°C° 0 mm 3 mps 748 mmHg 89%
    02:00 +4°C° 0.3 mm 3 mps 748 mmHg 90%
    03:00 +4°C° 0.3 mm 3 mps 748 mmHg 90%
    04:00 +4°C° 0.3 mm 3 mps 748 mmHg 90%
    05:00 +4°C° 0.2 mm 3 mps 748 mmHg 90%
    06:00 +4°C° 0.2 mm 3 mps 748 mmHg 91%
    07:00 +4°C° 0.2 mm 3 mps 748 mmHg 91%
    08:00 +4°C° 0.3 mm 3 mps 748 mmHg 90%
    09:00 +4°C° 0.3 mm 3 mps 749 mmHg 89%
    10:00 +4°C° 0.3 mm 3 mps 749 mmHg 89%
    11:00 +4°C° 0.3 mm 3 mps 749 mmHg 88%
    12:00 +4°C° 0.3 mm 3 mps 749 mmHg 87%
    13:00 +5°C° 0.3 mm 4 mps 750 mmHg 86%
    14:00 +5°C° 0.1 mm 3 mps 750 mmHg 85%
    15:00 +5°C° 0.1 mm 3 mps 750 mmHg 84%
    16:00 +5°C° 0.1 mm 3 mps 751 mmHg 84%
    17:00 +4°C° 0.1 mm 3 mps 751 mmHg 83%
    18:00 +4°C° 0.1 mm 3 mps 752 mmHg 83%
    19:00 +4°C° 0.1 mm 3 mps 752 mmHg 82%
    20:00 +4°C° 0 mm 3 mps 753 mmHg 82%
    21:00 +4°C° 0 mm 3 mps 753 mmHg 81%
    22:00 +4°C° 0 mm 3 mps 754 mmHg 81%
    23:00 +3°C° 0 mm 3 mps 754 mmHg 82%

    Tomorrow, 24 October, Tuesday

    Time Temperature Precipitation Wind Pressure Humidity
    00:00 +2°C° 0 mm 3 mps 755 mmHg 83%
    01:00 +2°C° 0 mm 3 mps 755 mmHg 83%
    02:00 +2°C° 0 mm 3 mps 755 mmHg 84%
    03:00 +1°C° 0 mm 3 mps 756 mmHg 85%
    04:00 +1°C° 0 mm 3 mps 756 mmHg 86%
    05:00 +1°C° 0 mm 3 mps 757 mmHg 85%
    06:00 +1°C° 0 mm 3 mps 757 mmHg 85%
    07:00 0°C° 0 mm 3 mps 758 mmHg 85%
    08:00 +1°C° 0 mm 3 mps 758 mmHg 81%
    09:00 +2°C° 0 mm 3 mps 758 mmHg 77%
    10:00 +3°C° 0 mm 3 mps 758 mmHg 73%
    11:00 +4°C° 0 mm 3 mps 759 mmHg 70%
    12:00 +5°C° 0 mm 3 mps 759 mmHg 66%
    13:00 +7°C° 0 mm 3 mps 759 mmHg 63%
    14:00 +5°C° 0 mm 3 mps 759 mmHg 66%
    15:00 +6°C° 0 mm 2 mps 759 mmHg 69%
    16:00 +5°C° 0 mm 2 mps 759 mmHg 73%
    17:00 +4°C° 0 mm 2 mps 759 mmHg 75%
    18:00 +4°C° 0 mm 2 mps 759 mmHg 77%
    19:00 +2°C° 0 mm 3 mps 759 mmHg 79%
    20:00 +2°C° 0 mm 3 mps 759 mmHg 79%
    21:00 +2°C° 0 mm 3 mps 759 mmHg 79%
    22:00 +1°C° 0 mm 3 mps 759 mmHg 79%
    23:00 +1°C° 0 mm 3 mps 759 mmHg 79%

    Day after tomorrow, 25 October, Wednesday

    Time Temperature Precipitation Wind Pressure Humidity
    00:00 0°C° 0 mm 4 mps 759 mmHg 80%
    01:00 0°C° 0 mm 4 mps 759 mmHg 80%
    02:00 0°C° 0 mm 4 mps 759 mmHg 79%
    03:00 0°C° 0 mm 4 mps 759 mmHg 79%
    04:00 +1°C° 0 mm 4 mps 759 mmHg 79%
    05:00 +1°C° 0 mm 5 mps 758 mmHg 78%
    06:00 +1°C° 0 mm 5 mps 758 mmHg 78%
    07:00 +1°C° 0 mm 5 mps 758 mmHg 78%
    08:00 +2°C° 0.1 mm 6 mps 757 mmHg 75%
    09:00 +2°C° 0.1 mm 7 mps 757 mmHg 72%
    10:00 +3°C° 0.1 mm 7 mps 757 mmHg 69%
    11:00 +3°C° 1 mm 7 mps 756 mmHg 71%
    12:00 +2°C° 1 mm 8 mps 755 mmHg 73%
    13:00 +2°C° 1 mm 8 mps 755 mmHg 74%
    14:00 +2°C° 0.9 mm 8 mps 754 mmHg 78%
    15:00 +2°C° 0.9 mm 8 mps 753 mmHg 81%
    16:00 +2°C° 0.9 mm 8 mps 753 mmHg 85%
    17:00 +4°C° 0.6 mm 8 mps 752 mmHg 86%
    18:00 +4°C° 0.6 mm 7 mps 751 mmHg 88%
    19:00 +5°C° 0.6 mm 7 mps 751 mmHg 90%
    20:00 +7°C° 0.9 mm 6 mps 751 mmHg 91%
    21:00 +8°C° 0.9 mm 6 mps 751 mmHg 93%
    22:00 +9°C° 0.9 mm 5 mps 751 mmHg 94%
    23:00 +10°C° 0 mm 4 mps 751 mmHg 94%

    26 October, Thursday

    Time Temperature Precipitation Wind Pressure Humidity
    00:00 +8°C° 0 mm 4 mps 751 mmHg 94%
    01:00 +7°C° 0 mm 4 mps 751 mmHg 94%
    02:00 +7°C° 0 mm 4 mps 752 mmHg 94%
    03:00 +7°C° 0 mm 4 mps 752 mmHg 95%
    04:00 +7°C° 0 mm 4 mps 752 mmHg 95%
    05:00 +8°C° 0 mm 4 mps 752 mmHg 94%
    06:00 +8°C° 0 mm 4 mps 752 mmHg 93%
    07:00 +8°C° 0 mm 4 mps 752 mmHg 92%
    08:00 +9°C° 0 mm 5 mps 752 mmHg 89%
    09:00 +9°C° 0 mm 5 mps 752 mmHg 86%
    10:00 +10°C° 0 mm 6 mps 752 mmHg 83%
    11:00 +10°C° 0.1 mm 6 mps 751 mmHg 82%
    12:00 +10°C° 0.1 mm 5 mps 751 mmHg 82%
    13:00 +10°C° 0.1 mm 5 mps 751 mmHg 81%
    14:00 +10°C° 0 mm 5 mps 751 mmHg 82%
    15:00 +9°C° 0 mm 5 mps 750 mmHg 83%
    16:00 +10°C° 0 mm 4 mps 750 mmHg 84%
    17:00 +9°C° 0.1 mm 5 mps 750 mmHg 85%
    18:00 +9°C° 0.1 mm 5 mps 749 mmHg 86%
    19:00 +9°C° 0.1 mm 5 mps 749 mmHg 87%
    20:00 +8°C° 0 mm 5 mps 748 mmHg 88%
    21:00 +8°C° 0 mm 5 mps 748 mmHg 90%
    22:00 +8°C° 0 mm 4 mps 748 mmHg 91%
    23:00 +8°C° 0 mm 5 mps 747 mmHg 91%

    27 October, Friday

    Time Temperature Precipitation Wind Pressure Humidity
    00:00 +8°C° 0 mm 5 mps 747 mmHg 92%
    01:00 +8°C° 0 mm 5 mps 747 mmHg 92%
    02:00 +8°C° 0 mm 5 mps 746 mmHg 92%
    03:00 +8°C° 0 mm 4 mps 746 mmHg 92%
    04:00 +8°C° 0 mm 4 mps 746 mmHg 91%
    05:00 +7°C° 0 mm 4 mps 745 mmHg 91%
    06:00 +7°C° 0 mm 4 mps 745 mmHg 91%
    07:00 +7°C° 0 mm 4 mps 744 mmHg 91%
    08:00 +8°C° 0.1 mm 5 mps 744 mmHg 87%
    09:00 +8°C° 0.1 mm 5 mps 744 mmHg 84%
    10:00 +9°C° 0.1 mm 5 mps 744 mmHg 80%
    11:00 +9°C° 0.2 mm 5 mps 744 mmHg 79%
    12:00 +9°C° 0.2 mm 5 mps 743 mmHg 78%
    13:00 +9°C° 0.2 mm 5 mps 743 mmHg 76%
    14:00 +9°C° 0.2 mm 5 mps 743 mmHg 79%
    15:00 +8°C° 0.2 mm 4 mps 743 mmHg 82%
    16:00 +8°C° 0.2 mm 4 mps 742 mmHg 85%
    17:00 +7°C° 0.1 mm 4 mps 742 mmHg 88%
    18:00 +7°C° 0.1 mm 4 mps 743 mmHg 90%
    19:00 +8°C° 0.1 mm 3 mps 743 mmHg 92%
    20:00 +7°C° 0 mm 3 mps 743 mmHg 92%
    21:00 +7°C° 0 mm 3 mps 743 mmHg 93%
    22:00 +5°C° 0 mm 3 mps 743 mmHg 94%
    23:00 +5°C° 0 mm 3 mps 743 mmHg 91%

    28 October, Saturday

    Time Temperature Precipitation Wind Pressure Humidity
    00:00 +5°C° 0 mm 4 mps 743 mmHg 89%
    01:00 +4°C° 0 mm 4 mps 743 mmHg 87%
    02:00 +4°C° 0 mm 4 mps 743 mmHg 88%
    03:00 +4°C° 0 mm 4 mps 743 mmHg 88%
    04:00 +4°C° 0 mm 4 mps 742 mmHg 89%
    05:00 +4°C° 0.1 mm 4 mps 742 mmHg 89%
    06:00 +4°C° 0.1 mm 4 mps 742 mmHg 89%
    07:00 +4°C° 0.1 mm 4 mps 741 mmHg 89%
    08:00 +5°C° 0.1 mm 4 mps 741 mmHg 87%
    09:00 +5°C° 0.1 mm 5 mps 740 mmHg 85%
    10:00 +6°C° 0.1 mm 5 mps 739 mmHg 83%
    11:00 +5°C° 0.5 mm 6 mps 738 mmHg 84%
    12:00 +5°C° 0.5 mm 6 mps 736 mmHg 84%
    13:00 +5°C° 0.5 mm 6 mps 735 mmHg 85%
    14:00 +6°C° 0.6 mm 5 mps 734 mmHg 87%
    15:00 +6°C° 0.6 mm 5 mps 733 mmHg 88%
    16:00 +6°C° 0.6 mm 5 mps 732 mmHg 90%
    17:00 +6°C° 0.8 mm 4 mps 731 mmHg 91%
    18:00 +7°C° 0.8 mm 3 mps 731 mmHg 92%
    19:00 +5°C° 0.8 mm 3 mps 731 mmHg 93%
    20:00 +5°C° 0.8 mm 3 mps 731 mmHg 93%
    21:00 +5°C° 0.8 mm 4 mps 731 mmHg 93%
    22:00 +5°C° 0.8 mm 5 mps 731 mmHg 93%
    23:00 +5°C° 0.5 mm 5 mps 732 mmHg 92%

    29 October, Sunday

    Time Temperature Precipitation Wind Pressure Humidity
    00:00 +5°C° 0.5 mm 5 mps 732 mmHg 91%
    01:00 +4°C° 0.5 mm 6 mps 733 mmHg 90%
    02:00 +4°C° 0.1 mm 6 mps 733 mmHg 90%
    03:00 +3°C° 0.1 mm 6 mps 734 mmHg 89%
    04:00 +3°C° 0.1 mm 6 mps 735 mmHg 89%
    05:00 +3°C° 0.2 mm 5 mps 736 mmHg 89%
    06:00 +3°C° 0.2 mm 5 mps 737 mmHg 90%
    07:00 +3°C° 0.2 mm 5 mps 737 mmHg 90%
    08:00 +3°C° 0.4 mm 6 mps 738 mmHg 87%
    09:00 +4°C° 0.4 mm 7 mps 739 mmHg 83%
    10:00 +5°C° 0.4 mm 7 mps 740 mmHg 79%
    11:00 +5°C° 0.4 mm 8 mps 740 mmHg 78%
    12:00 +5°C° 0.4 mm 8 mps 741 mmHg 77%
    13:00 +5°C° 0.4 mm 8 mps 741 mmHg 76%
    14:00 +4°C° 0.1 mm 8 mps 741 mmHg 76%
    15:00 +4°C° 0.1 mm 7 mps 742 mmHg 77%
    16:00 +4°C° 0.1 mm 7 mps 742 mmHg 77%
    17:00 +3°C° 0 mm 7 mps 743 mmHg 78%
    18:00 +3°C° 0 mm 6 mps 743 mmHg 80%
    19:00 +2°C° 0 mm 6 mps 744 mmHg 81%
    20:00 +2°C° 0 mm 6 mps 744 mmHg 82%
    21:00 +2°C° 0 mm 5 mps 745 mmHg 82%
    22:00 +2°C° 0 mm 5 mps 745 mmHg 83%
    23:00 +2°C° 0 mm 5 mps 745 mmHg 84%
    Show more